Voltar ao catálogo

STARLINK-3069

AtivoComunicaçõesVLEO
NORAD 49176·PAYLOAD·🇺🇸 United States

Lançado Sep 14, 2021 de Vandenberg Space Force Base

Loading…

Próximas Passagens (próximas 24 horas)

TLE

AtualizadoSource: CelesTrak SupGP

Época: Sep 14, 2026, 20:55 UTC

1 49176C 21082AY  26257.87201389  .00612920  00000+0  57155-3 0  2572
2 49176  69.9904 117.2871 0005044 257.8222 170.3435 16.11600666    11

Acompanhe STARLINK-3069 em tempo real com AllMySat

Download on the App Store